Moline, IL

4:57 PM CDT on June 24, 2017 (GMT -0500)
Quad-City International

Weather History for KMLI - May, 2013

Change the Weather History Date:

Monday, May 6, 2013

  Actual Average Record
Temperature  
Mean Temperature 63 °F 59 °F  
Max Temperature 76 °F 70 °F 94 °F (1934)
Min Temperature 49 °F 48 °F 30 °F (1992)
Degree Days  
Heating Degree Days 2 7  
Month to date heating degree days 46 48  
Since 1 July heating degree days 6204 6071  
Cooling Degree Days 0 1  
Month to date cooling degree days 6 6  
Year to date cooling degree days 15 20  
Growing Degree Days 12 (Base 50)    
Moisture  
Dew Point 48 °F    
Average Humidity 61    
Maximum Humidity 89    
Minimum Humidity 33    
Precipitation  
Precipitation 0.00 in 0.13 in 2.19 in (1876)
Month to date precipitation 2.82 0.78  
Year to date precipitation 18.00 10.32  
Snow  
Snow 0.00 in 0.00 in - ()
Month to date snowfall 0.0 0.0  
Since 1 July snowfall 34.5 31.6  
Snow Depth 0.00 in    
Sea Level Pressure  
Sea Level Pressure 30.01 in    
Wind  
Wind Speed 4 mph (NNE)    
Max Wind Speed 14 mph    
Max Gust Speed 18 mph    
Visibility 10 miles    
Events      
T = Trace of Precipitation, MM = Missing Value Source: NWS Daily Summary

Daily Weather History Graph

Daily Weather History Graph

Search for Another Location

Airport or City:

Trip Planner

Search our weather history database for the weather conditions in past years. The results will help you decide how hot, cold, wet, or windy it might be!

Date:

Astronomy

May. 06, 2013 Rise Set
Actual Time 5:52 AM CDT 8:05 PM CDT
Civil Twilight 5:21 AM CDT 8:36 PM CDT
Nautical Twilight 4:44 AM CDT 9:13 PM CDT
Astronomical Twilight 4:02 AM CDT 9:55 PM CDT
Moon 3:57 AM CDT (5/6) 5:03 PM CDT (5/6)
Length of Visible Light 15h 14m
Length of Day
14h 12m
Waning Crescent, 11% of the Moon is Illuminated
May 6
Waning Crescent
May 9
New
May 17
First Quarter
May 24
Full
May 31
Last Quarter

Hourly Weather History & Observations

Time (CDT) Temp. Dew Point Humidity Pressure Visibility Wind Dir Wind Speed Gust Speed Precip Events Conditions
12:52 AM 55.9 °F 52.0 °F 87% 30.01 in 10.0 mi Calm Calm - N/A   Overcast
1:52 AM 54.0 °F 50.0 °F 86% 30.01 in 10.0 mi Calm Calm - N/A   Scattered Clouds
2:52 AM 53.1 °F 48.9 °F 86% 30.00 in 10.0 mi Calm Calm - N/A   Clear
3:52 AM 51.1 °F 48.0 °F 89% 30.00 in 10.0 mi Calm Calm - N/A   Partly Cloudy
4:52 AM 51.1 °F 48.0 °F 89% 30.01 in 10.0 mi Calm Calm - N/A   Overcast
5:52 AM 53.1 °F 48.9 °F 86% 30.01 in 10.0 mi Calm Calm - N/A   Scattered Clouds
6:52 AM 54.0 °F 50.0 °F 86% 30.03 in 10.0 mi Calm Calm - N/A   Overcast
7:52 AM 57.0 °F 52.0 °F 83% 30.05 in 10.0 mi SSE 3.5 mph - N/A   Overcast
8:52 AM 62.1 °F 48.9 °F 62% 30.05 in 10.0 mi Variable 3.5 mph - N/A   Overcast
9:52 AM 66.9 °F 48.9 °F 52% 30.05 in 10.0 mi North 8.1 mph - N/A   Overcast
10:52 AM 69.1 °F 48.0 °F 47% 30.04 in 10.0 mi NNE 8.1 mph - N/A   Scattered Clouds
11:52 AM 71.1 °F 46.9 °F 42% 30.02 in 10.0 mi NNE 10.4 mph 18.4 mph N/A   Clear
12:52 PM 73.0 °F 46.9 °F 39% 30.01 in 10.0 mi NE 10.4 mph - N/A   Clear
1:52 PM 75.0 °F 46.9 °F 37% 29.99 in 10.0 mi NE 8.1 mph 17.3 mph N/A   Clear
2:52 PM 75.9 °F 48.0 °F 37% 29.98 in 10.0 mi NNE 6.9 mph - N/A   Clear
3:52 PM 75.9 °F 45.0 °F 33% 29.97 in 10.0 mi NNE 8.1 mph - N/A   Clear
4:52 PM 75.9 °F 44.1 °F 32% 29.97 in 10.0 mi North 9.2 mph 17.3 mph N/A   Clear
5:52 PM 72.0 °F 44.1 °F 37% 29.97 in 10.0 mi North 5.8 mph - N/A   Partly Cloudy
6:52 PM 72.0 °F 42.1 °F 34% 29.97 in 10.0 mi NNE 4.6 mph - N/A   Partly Cloudy
7:52 PM 70.0 °F 43.0 °F 38% 29.98 in 10.0 mi NNE 3.5 mph - N/A   Mostly Cloudy
8:52 PM 69.1 °F 43.0 °F 39% 29.99 in 10.0 mi Calm Calm - N/A   Overcast
9:52 PM 63.0 °F 52.0 °F 67% 30.00 in 10.0 mi Calm Calm - N/A   Overcast
10:52 PM 61.0 °F 53.1 °F 75% 30.00 in 10.0 mi Calm Calm - N/A   Overcast
11:52 PM 60.1 °F 48.0 °F 64% 30.01 in 10.0 mi Calm Calm - N/A   Overcast